Powrót do katalogu

KUIPER-00151

AktywnyŁącznośćLEO
NORAD 65771·PAYLOAD·🇺🇸 United States

Wystrzelony Sep 25, 2025 z Cape Canaveral Space Force Station

Loading…

Następne Przeloty (najbliższe 24 godziny)

TLE

ŚwieżeSource: CelesTrak SupGP

Epoka: Sep 15, 2026, 02:10 UTC

1 65771C 25217K   26258.09075232  .00000578  00000+0  75711-4 0  2586
2 65771  51.9000 285.5934 0000515  67.6648  39.2706 14.79928157    18

Śledź KUIPER-00151 w czasie rzeczywistym z AllMySat

Download on the App Store